EW0591 Weather Reports


Display with metric or nautical units.
time (UTC)temp
F
wind
direction
speed
MPH
gust
MPH
rain 1hr
in
rain 24hr
in
rain mn
in
humidity
%
barometer
mb
20260504034319 55 141 2.0 3.0 0.00 0.00 0.00 64 1016.9
20260504033815 56 210 0.0 0.0 0.00 0.00 0.00 64 1017.0
20260504033313 56 307 0.0 0.0 0.00 0.00 0.00 64 1017.0
20260504032804 58 278 0.0 0.0 0.00 0.00 0.00 62 1016.9
20260504032301 54 258 0.0 1.0 0.00 0.00 0.00 69 1016.8
20260504031757 55 249 0.0 0.0 0.00 0.00 0.00 70 1016.9
20260504031255 55 284 0.0 0.0 0.00 0.00 0.00 71 1016.7
20260504030750 55 124 1.0 2.0 0.00 0.00 0.00 65 1017.0
20260504030248 57 73 1.0 2.0 0.00 0.00 0.00 58 1016.7
20260504025744 58 283 0.0 0.0 0.00 0.00 0.00 61 1016.6
20260504025241 60 197 0.0 1.0 0.00 0.00 0.00 58 1016.7
20260504024738 61 212 0.0 0.0 0.00 0.00 0.00 50 1016.7
20260504024235 61 203 0.0 0.0 0.00 0.00 0.00 47 1016.6
20260504023732 61 295 0.0 0.0 0.00 0.00 0.00 45 1016.6
20260504023228 61 225 0.0 0.0 0.00 0.00 0.00 50 1016.3
20260504022724 62 243 0.0 0.0 0.00 0.00 0.00 51 1016.6
20260504022220 62 234 0.0 0.0 0.00 0.00 0.00 49 1016.5
20260504021718 62 244 0.0 0.0 0.00 0.00 0.00 50 1016.5
20260504021215 63 245 0.0 0.0 0.00 0.00 0.00 49 1016.6
20260504020712 64 329 3.0 3.0 0.00 0.00 0.00 54 1016.4
20260504020208 68 237 1.0 1.0 0.00 0.00 0.00 48 1016.3
20260504015704 69 247 0.0 0.0 0.00 0.00 0.00 44 1016.3
20260504015201 72 260 1.0 1.0 0.00 0.00 0.00 41 1016.3
20260504014656 73 270 1.0 2.0 0.00 0.00 0.00 37 1016.3
20260504014154 75 240 1.0 2.0 0.00 0.00 0.00 39 1016.4
20260504013651 76 227 0.0 0.0 0.00 0.00 0.00 38 1016.3
20260504013148 75 240 0.0 0.0 0.00 0.00 0.00 39 1016.6
20260504012645 77 249 1.0 1.0 0.00 0.00 0.00 33 1016.7
20260504012143 77 242 0.0 0.0 0.00 0.00 0.00 30 1016.6
20260504011639 77 242 0.0 0.0 0.00 0.00 0.00 29 1016.6
20260504011136 76 265 1.0 1.0 0.00 0.00 0.00 29 1016.6
20260504010632 76 314 2.0 2.0 0.00 0.00 0.00 30 1016.7
20260504010128 76 244 0.0 0.0 0.00 0.00 0.00 28 1016.7
20260504005625 77 324 0.0 1.0 0.00 0.00 0.00 33 1016.6
20260504005122 76 286 2.0 3.0 0.00 0.00 0.00 32 1016.7
20260504004620 77 298 3.0 3.0 0.00 0.00 0.00 31 1016.7
20260504004117 78 286 3.0 3.0 0.00 0.00 0.00 31 1016.7
20260504003613 77 238 0.0 0.0 0.00 0.00 0.00 29 1016.9
20260504003110 76 325 2.0 2.0 0.00 0.00 0.00 28 1017.0
20260504002607 76 337 2.0 2.0 0.00 0.00 0.00 29 1016.7
20260504002104 76 324 3.0 3.0 0.00 0.00 0.00 29 1017.3
20260504001602 76 337 3.0 3.0 0.00 0.00 0.00 32 1017.0
20260504001057 76 329 3.0 5.0 0.00 0.00 0.00 30 1017.3
20260504000555 76 322 2.0 2.0 0.00 0.00 0.00 30 1017.0
20260504000052 77 332 4.0 5.0 0.00 0.00 0.00 30 1017.2
20260503235550 76 312 4.0 6.0 0.00 0.00 0.00 32 1017.4
20260503235047 77 291 3.0 3.0 0.00 0.00 0.00 31 1017.2
20260503234545 76 329 1.0 2.0 0.00 0.00 0.00 31 1017.5
20260503234043 75 324 3.0 3.0 0.00 0.00 0.00 29 1017.2
20260503233539 75 337 5.0 6.0 0.00 0.00 0.00 32 1017.5
20260503233035 75 297 2.0 2.0 0.00 0.00 0.00 33 1017.6
20260503232532 73 308 3.0 3.0 0.00 0.00 0.00 35 1017.4
20260503232030 75 326 4.0 6.0 0.00 0.00 0.00 35 1017.7
20260503231527 74 327 4.0 5.0 0.00 0.00 0.00 35 1017.4
20260503231024 73 336 4.0 5.0 0.00 0.00 0.00 34 1017.6
20260503230520 73 335 3.0 3.0 0.00 0.00 0.00 35 1017.6
20260503230018 74 352 1.0 2.0 0.00 0.00 0.00 34 1017.6
20260503225515 76 250 0.0 0.0 0.00 0.00 0.00 29 1017.7
20260503225010 76 321 1.0 2.0 0.00 0.00 0.00 34 1017.9
20260503224508 77 333 3.0 3.0 0.00 0.00 0.00 29 1017.7
20260503224005 78 154 1.0 2.0 0.00 0.00 0.00 28 1017.9
20260503223503 76 54 4.0 6.0 0.00 0.00 0.00 29 1017.9
20260503222958 76 333 4.0 5.0 0.00 0.00 0.00 31 1018.1
20260503222457 77 322 5.0 6.0 0.00 0.00 0.00 28 1017.9
20260503221954 77 106 1.0 2.0 0.00 0.00 0.00 29 1018.3
20260503221453 77 5 2.0 5.0 0.00 0.00 0.00 30 1018.1
20260503220950 77 246 2.0 2.0 0.00 0.00 0.00 34 1018.3
20260503220446 76 351 4.0 5.0 0.00 0.00 0.00 30 1018.3
20260503215943 76 343 3.0 5.0 0.00 0.00 0.00 33 1018.4
20260503215439 76 245 2.0 2.0 0.00 0.00 0.00 32 1018.4
20260503214937 76 312 5.0 6.0 0.00 0.00 0.00 30 1018.5
20260503214435 76 352 4.0 5.0 0.00 0.00 0.00 32 1018.7
20260503213932 77 18 4.0 6.0 0.00 0.00 0.00 34 1018.9
20260503213430 76 256 0.0 0.0 0.00 0.00 0.00 33 1018.7
20260503212926 76 64 2.0 5.0 0.00 0.00 0.00 33 1018.9
20260503212424 76 308 4.0 5.0 0.00 0.00 0.00 32 1018.8
20260503211921 75 277 3.0 3.0 0.00 0.00 0.00 33 1019.1
20260503211418 75 303 3.0 3.0 0.00 0.00 0.00 30 1019.1
20260503210913 76 274 4.0 6.0 0.00 0.00 0.00 33 1019.2
20260503210410 75 202 4.0 5.0 0.00 0.00 0.00 30 1019.4
20260503205905 76 170 5.0 6.0 0.00 0.00 0.00 32 1019.7
20260503205402 77 31 1.0 1.0 0.00 0.00 0.00 32 1019.5
20260503204858 75 189 0.0 1.0 0.00 0.00 0.00 33 1019.8
20260503204356 74 288 3.0 5.0 0.00 0.00 0.00 35 1019.8
20260503203853 75 236 1.0 1.0 0.00 0.00 0.00 32 1020.0
20260503203350 74 151 1.0 2.0 0.00 0.00 0.00 35 1019.8
20260503202847 74 283 0.0 1.0 0.00 0.00 0.00 36 1019.8
20260503202345 74 187 3.0 3.0 0.00 0.00 0.00 38 1020.0
20260503201843 73 219 1.0 2.0 0.00 0.00 0.00 34 1020.0
20260503201340 74 187 2.0 2.0 0.00 0.00 0.00 36 1020.0
20260503200838 73 328 1.0 2.0 0.00 0.00 0.00 37 1020.5
20260503200333 72 264 0.0 1.0 0.00 0.00 0.00 35 1020.2
20260503195831 73 218 2.0 3.0 0.00 0.00 0.00 39 1020.4
20260503195327 72 305 1.0 1.0 0.00 0.00 0.00 36 1020.0
20260503194824 71 268 2.0 2.0 0.00 0.00 0.00 37 1020.7
20260503194320 72 281 0.0 0.0 0.00 0.00 0.00 36 1020.6
20260503193816 72 225 2.0 3.0 0.00 0.00 0.00 41 1020.9
20260503193313 72 241 0.0 1.0 0.00 0.00 0.00 38 1020.9
20260503192809 71 216 3.0 3.0 0.00 0.00 0.00 37 1021.0
20260503192305 71 183 3.0 3.0 0.00 0.00 0.00 37 1021.1
20260503191800 71 197 5.0 7.0 0.00 0.00 0.00 41 1021.2
20260503191258 70 197 3.0 3.0 0.00 0.00 0.00 40 1021.1
20260503190754 71 207 5.0 7.0 0.00 0.00 0.00 40 1021.3
20260503190251 70 241 3.0 3.0 0.00 0.00 0.00 42 1021.3
20260503185748 70 217 3.0 5.0 0.00 0.00 0.00 46 1021.2
20260503185244 69 220 2.0 2.0 0.00 0.00 0.00 42 1021.5
20260503184738 69 234 0.0 0.0 0.00 0.00 0.00 41 1021.6
20260503184235 68 257 3.0 3.0 0.00 0.00 0.00 42 1021.7
20260503183732 68 178 2.0 2.0 0.00 0.00 0.00 41 1021.8
20260503183229 68 234 4.0 5.0 0.00 0.00 0.00 40 1021.7
20260503182727 68 244 5.0 6.0 0.00 0.00 0.00 43 1022.2
20260503182226 67 151 3.0 3.0 0.00 0.00 0.00 42 1022.1
20260503181722 67 223 2.0 2.0 0.00 0.00 0.00 43 1022.1
20260503181219 68 230 5.0 6.0 0.00 0.00 0.00 41 1022.5
20260503180715 66 136 2.0 3.0 0.00 0.00 0.00 42 1022.7
20260503180214 66 233 1.0 1.0 0.00 0.00 0.00 43 1022.3
20260503175710 66 179 5.0 6.0 0.00 0.00 0.00 42 1022.7
20260503175208 65 180 4.0 6.0 0.00 0.00 0.00 44 1022.9
20260503174704 65 239 2.0 3.0 0.00 0.00 0.00 45 1022.9
20260503174201 64 245 5.0 6.0 0.00 0.00 0.00 44 1023.0
20260503173656 65 199 5.0 6.0 0.00 0.00 0.00 46 1023.0
20260503173153 65 164 1.0 2.0 0.00 0.00 0.00 43 1023.0
20260503172650 64 209 3.0 3.0 0.00 0.00 0.00 47 1023.2
20260503172147 63 190 2.0 2.0 0.00 0.00 0.00 48 1023.2
20260503171643 63 200 4.0 5.0 0.00 0.00 0.00 48 1023.4
20260503171141 62 112 0.0 1.0 0.00 0.00 0.00 49 1023.2
20260503170638 62 181 4.0 5.0 0.00 0.00 0.00 49 1023.4
20260503170135 61 236 2.0 6.0 0.00 0.00 0.00 53 1023.4
20260503150526 51 226 1.0 1.0 0.00 0.00 0.00 69 1024.5
20260503131419 35 250 0.0 0.0 0.00 0.00 0.00 95 1025.1
20260503130916 34 250 0.0 0.0 0.00 0.00 0.00 95 1025.0
20260503130414 34 257 0.0 0.0 0.00 0.00 0.00 95 1025.0
20260503110817 36 227 0.0 0.0 0.00 0.00 0.00 95 1024.8
20260503110314 36 227 0.0 0.0 0.00 0.00 0.00 95 1024.8
20260503100240 38 244 0.0 0.0 0.00 0.00 0.00 94 1024.5
20260503090200 38 217 0.0 0.0 0.00 0.00 0.00 93 1024.4
20260503081630 39 252 0.0 0.0 0.00 0.00 0.00 92 1024.1
20260503081127 39 223 0.0 0.0 0.00 0.00 0.00 92 1024.0
20260503080623 40 221 0.0 0.0 0.00 0.00 0.00 92 1023.9
20260503080120 39 222 0.0 0.0 0.00 0.00 0.00 91 1023.9
20260503072557 41 254 0.0 0.0 0.00 0.00 0.00 89 1023.7
20260503072054 41 255 0.0 0.0 0.00 0.00 0.00 89 1023.8
20260503071550 41 272 0.0 0.0 0.00 0.00 0.00 89 1023.9
20260503071048 41 303 1.0 1.0 0.00 0.00 0.00 88 1023.8
20260503070544 42 246 0.0 0.0 0.00 0.00 0.00 88 1023.6
20260503054957 45 171 2.0 2.0 0.00 0.00 0.00 87 1023.3
20260503054453 45 198 0.0 1.0 0.00 0.00 0.00 87 1023.3
20260503053951 45 193 2.0 2.0 0.00 0.00 0.00 86 1023.2
20260503053449 45 221 0.0 0.0 0.00 0.00 0.00 86 1022.9
20260503052945 45 222 0.0 0.0 0.00 0.00 0.00 85 1023.0
20260503052443 46 213 0.0 0.0 0.00 0.00 0.00 85 1023.1
20260503051939 46 223 0.0 0.0 0.00 0.00 0.00 84 1023.1
20260503051435 46 225 0.0 0.0 0.00 0.00 0.00 82 1023.0
20260503050932 45 225 0.0 0.0 0.00 0.00 0.00 83 1022.9
20260503050428 45 225 0.0 0.0 0.00 0.00 0.00 83 1022.9
20260503045926 46 222 0.0 0.0 0.00 0.00 0.00 82 1022.9
20260503045423 46 222 0.0 0.0 0.00 0.00 0.00 81 1022.9
20260503044919 47 222 0.0 0.0 0.00 0.00 0.00 80 1022.8
20260503044416 47 222 0.0 0.0 0.00 0.00 0.00 79 1022.7
20260503043914 48 222 0.0 0.0 0.00 0.00 0.00 78 1022.7
20260503043410 47 217 0.0 0.0 0.00 0.00 0.00 78 1022.9
20260503042907 48 207 0.0 1.0 0.00 0.00 0.00 77 1022.6
20260503042403 48 227 0.0 0.0 0.00 0.00 0.00 77 1022.8
20260503041900 48 228 0.0 0.0 0.00 0.00 0.00 77 1022.6
20260503041357 48 216 0.0 0.0 0.00 0.00 0.00 76 1022.7
20260503040854 48 220 0.0 0.0 0.00 0.00 0.00 77 1022.6
20260503040352 48 232 0.0 0.0 0.00 0.00 0.00 77 1022.6
20260503035848 49 216 0.0 0.0 0.00 0.00 0.00 75 1022.6
20260503035346 50 214 0.0 0.0 0.00 0.00 0.00 75 1022.6
20260503034843 50 224 0.0 0.0 0.00 0.00 0.00 74 1022.3